�N����,����,�~����,�C��,���x,�C��,����,���ϕ���,�ő�u�ԕ���,�ő厞����,���˗�,�I�_���x,�n�����x,�ő啗���N��,DTYPE
"19/08/08","00:10",0.0,25.5,89.4,1003.8,329.8,1.0,1.7,342.3,0.00,23.7,27.5,"00:04:00",1
"19/08/08","00:20",0.0,25.4,90.0,1003.6,300.5,0.7,1.2,303.4,0.00,23.7,27.7,"00:11:28",1
"19/08/08","00:30",0.0,25.0,89.4,1004.1,300.2,0.8,1.8,323.5,0.00,23.2,27.6,"00:29:44",1
"19/08/08","00:40",0.0,24.9,89.3,1003.6,323.3,1.2,2.6,340.4,0.00,23.1,27.6,"00:34:56",1
"19/08/08","00:50",0.0,25.2,89.3,1004.1,326.9,0.8,1.6,328.3,0.00,23.4,27.4,"00:40:56",1
"19/08/08","01:00",0.0,24.9,89.1,1004.3,311.6,0.8,1.6,337.0,0.00,23.0,27.2,"00:52:56",1
"19/08/08","01:10",0.0,24.9,89.5,1003.6,323.3,0.6,1.3,333.8,0.00,23.1,27.4,"01:02:56",1
"19/08/08","01:20",0.0,24.9,89.8,1004.1,318.0,0.7,1.6,325.7,0.00,23.1,27.2,"01:13:36",1
"19/08/08","01:30",0.0,25.0,89.8,1003.8,331.1,0.6,1.2,332.4,0.00,23.2,27.3,"01:27:28",1
"19/08/08","01:40",0.0,24.9,90.0,1004.3,325.9,0.8,1.7,325.1,0.00,23.2,27.2,"01:31:28",1
"19/08/08","01:50",0.0,24.9,90.4,1004.1,293.2,0.5,1.1,317.4,0.00,23.3,27.2,"01:46:48",1
"19/08/08","02:00",0.0,24.8,90.4,1003.8,307.9,0.5,0.9,330.6,0.00,23.2,27.0,"01:53:04",1
"19/08/08","02:10",0.0,24.8,90.8,1003.8,309.5,0.8,1.2,325.1,0.00,23.2,27.2,"02:03:12",1
"19/08/08","02:20",0.0,24.7,90.9,1003.8,282.4,0.7,1.4,266.0,0.00,23.2,27.1,"02:16:40",1
"19/08/08","02:30",0.0,24.8,91.2,1004.1,315.7,0.7,1.4,343.2,0.00,23.3,27.1,"02:27:12",1
"19/08/08","02:40",0.0,24.9,91.2,1003.8,304.7,0.6,1.0,332.6,0.00,23.4,27.0,"02:30:08",1
"19/08/08","02:50",0.0,25.1,91.3,1003.8,322.3,1.0,1.7,342.0,0.00,23.6,27.0,"02:44:24",1
"19/08/08","03:00",0.0,25.0,91.0,1003.8,330.1,0.8,1.3,325.6,0.00,23.5,26.9,"02:54:48",1
"19/08/08","03:10",0.0,25.1,91.4,1004.1,319.1,0.2,0.9,274.1,0.00,23.6,26.7,"03:00:16",1
"19/08/08","03:20",0.0,25.3,91.6,1003.8,321.8,1.1,1.4,322.7,0.00,23.9,27.0,"03:16:48",1
"19/08/08","03:30",0.0,25.3,91.5,1003.8,292.9,0.6,1.0,323.2,0.00,23.9,27.0,"03:20:08",1
"19/08/08","03:40",0.0,25.1,91.2,1003.8,288.1,0.7,1.4,336.9,0.00,23.6,26.9,"03:38:56",1
"19/08/08","03:50",0.0,25.2,91.2,1004.5,322.1,1.2,1.7,339.6,0.00,23.7,27.0,"03:41:12",1
"19/08/08","04:00",0.0,25.4,91.3,1004.3,316.2,0.7,1.2,309.1,0.00,23.9,26.7,"03:58:00",1
"19/08/08","04:10",0.0,25.3,90.9,1004.3,310.1,0.8,1.4,345.1,0.00,23.7,26.9,"04:00:02",1
"19/08/08","04:20",0.0,25.3,90.9,1004.1,309.8,0.3,1.8,333.4,0.00,23.7,26.9,"04:10:08",1
"19/08/08","04:30",0.0,25.4,91.2,1004.3,293.6,0.6,0.9,325.0,0.00,23.9,26.8,"04:26:40",1
"19/08/08","04:40",0.0,25.4,90.8,1004.3,312.4,0.6,0.9,316.9,0.00,23.8,26.8,"04:37:04",1
"19/08/08","04:50",0.0,25.3,90.5,1003.8,294.2,0.7,1.0,322.0,0.00,23.7,27.0,"04:40:32",1
"19/08/08","05:00",0.0,25.2,90.5,1003.8,307.4,1.0,1.6,339.6,0.00,23.6,26.9,"04:54:08",1
"19/08/08","05:10",0.0,25.1,90.6,1004.1,307.9,1.0,1.3,334.1,0.00,23.5,26.9,"05:06:00",1
"19/08/08","05:20",0.0,25.2,90.6,1004.3,337.8,1.2,1.8,333.3,0.00,23.6,26.9,"05:18:56",1
"19/08/08","05:30",0.0,25.2,90.5,1004.1,324.3,0.8,1.8,341.8,0.00,23.6,26.7,"05:20:40",1
"19/08/08","05:40",0.0,25.1,90.7,1004.5,289.8,0.8,1.9,318.8,0.00,23.5,26.7,"05:35:28",1
"19/08/08","05:50",0.0,25.1,90.6,1004.8,278.7,0.6,1.0,250.8,0.00,23.5,26.9,"05:41:12",1
"19/08/08","06:00",0.0,25.1,90.6,1004.5,290.3,0.7,1.3,319.1,0.00,23.5,26.7,"05:50:24",1
"19/08/08","06:10",0.0,25.1,90.6,1004.5,280.1,0.8,1.4,257.7,0.00,23.5,26.5,"06:07:04",1
"19/08/08","06:20",0.0,25.2,90.5,1004.5,304.3,0.8,1.3,308.6,0.00,23.6,26.7,"06:16:00",1
"19/08/08","06:30",0.0,25.3,90.6,1004.8,295.1,0.8,1.3,325.9,0.00,23.7,26.7,"06:21:28",1
"19/08/08","06:40",0.0,25.3,90.1,1004.5,276.7,0.8,1.3,265.3,0.01,23.6,26.7,"06:31:44",1
"19/08/08","06:50",0.0,25.6,90.2,1004.3,306.3,1.0,1.4,323.9,0.03,23.9,26.7,"06:42:40",1
"19/08/08","07:00",0.0,26.3,89.4,1004.5,283.0,0.6,1.2,308.4,0.06,24.5,26.7,"06:55:36",1
"19/08/08","07:10",0.0,26.9,88.5,1004.3,338.3,0.2,0.6,319.9,0.06,24.9,26.8,"07:03:36",1
"19/08/08","07:20",0.0,27.5,84.8,1004.1,20.2,0.3,1.1,16.1,0.07,24.8,26.7,"07:10:24",1
"19/08/08","07:30",0.0,27.9,81.7,1004.3,26.4,0.2,0.9,38.6,0.08,24.5,26.8,"07:20:24",1
"19/08/08","07:40",0.0,28.3,79.2,1004.3,3.7,0.2,0.9,349.6,0.09,24.4,27.1,"07:30:16",1
"19/08/08","07:50",0.0,28.9,78.3,1003.6,151.8,0.5,0.9,204.9,0.13,24.8,27.2,"07:43:36",1
"19/08/08","08:00",0.0,29.6,72.9,1004.3,61.5,0.6,1.2,14.9,0.17,24.3,26.9,"07:56:00",1
"19/08/08","08:10",0.0,29.5,72.3,1004.5,35.4,0.6,1.6,7.1,0.19,24.0,27.2,"08:07:36",1
"19/08/08","08:20",0.0,29.6,71.0,1005.0,24.9,1.0,1.8,16.2,0.21,23.8,27.2,"08:19:20",1
"19/08/08","08:30",0.0,29.8,70.2,1004.5,24.2,0.8,1.6,51.3,0.24,23.8,27.4,"08:21:04",1
"19/08/08","08:40",0.0,29.8,71.0,1005.0,65.7,0.5,1.4,41.2,0.26,24.0,27.6,"08:33:04",1
"19/08/08","08:50",0.0,30.1,71.2,1005.2,71.4,0.7,1.8,82.3,0.28,24.3,27.4,"08:43:20",1
"19/08/08","09:00",0.0,30.7,71.6,1005.0,59.2,0.6,1.4,57.9,0.30,25.0,27.7,"08:50:08",1
"19/08/08","09:10",0.0,30.5,69.5,1005.2,67.9,0.6,1.2,344.6,0.27,24.3,27.8,"09:02:32",1
"19/08/08","09:20",0.0,30.4,67.8,1005.5,174.6,0.7,1.6,114.0,0.33,23.8,27.9,"09:10:56",1
"19/08/08","09:30",0.0,30.8,67.7,1006.2,134.9,0.7,2.2,170.4,0.37,24.2,28.1,"09:28:16",1
"19/08/08","09:40",0.0,31.3,68.4,1006.0,179.5,1.2,2.6,220.6,0.39,24.8,28.2,"09:32:16",1
"19/08/08","09:50",0.0,31.5,67.2,1006.2,177.0,1.2,2.4,221.2,0.42,24.7,28.4,"09:45:46",1
"19/08/08","10:00",0.0,31.8,66.2,1006.2,116.2,0.7,2.0,25.3,0.45,24.7,28.6,"09:53:44",1
"19/08/08","10:10",0.0,31.2,66.3,1006.4,191.4,1.2,3.1,223.4,0.44,24.2,28.8,"10:06:28",1
"19/08/08","10:20",0.0,31.6,66.6,1006.7,173.0,0.8,1.8,199.8,0.42,24.7,28.9,"10:12:48",1
"19/08/08","10:30",0.2,32.3,65.9,1006.4,140.0,1.0,2.8,128.3,0.47,25.1,29.2,"10:21:12",1
"19/08/08","10:40",0.0,32.0,64.2,1006.7,152.7,1.2,3.1,138.4,0.53,24.4,29.3,"10:33:12",1
"19/08/08","10:50",0.0,32.0,63.8,1006.7,123.3,1.3,2.9,135.4,0.52,24.3,29.7,"10:46:40",1
"19/08/08","11:00",0.0,32.0,63.4,1006.7,122.7,1.3,2.9,123.3,0.45,24.2,29.8,"10:53:44",1
"19/08/08","11:10",0.0,32.0,66.2,1006.2,119.7,1.0,3.1,145.7,0.26,24.9,29.8,"11:08:16",1
"19/08/08","11:20",0.0,32.9,64.0,1006.0,196.3,2.1,5.6,221.9,0.48,25.2,29.9,"11:19:36",1
"19/08/08","11:30",0.0,32.8,62.6,1005.5,147.5,1.5,3.3,191.7,0.57,24.8,30.2,"11:20:48",1
"19/08/08","11:40",0.0,33.7,62.4,1005.7,84.2,0.8,2.2,65.4,0.40,25.6,30.3,"11:31:36",1
"19/08/08","11:50",0.0,33.6,60.4,1006.0,151.1,1.3,4.2,207.2,0.60,24.9,30.6,"11:44:32",1
"19/08/08","12:00",0.0,33.2,58.4,1006.0,192.5,1.7,3.3,243.3,0.59,24.0,30.8,"11:58:40",1
"19/08/08","12:10",0.0,33.4,59.1,1005.7,216.2,1.1,2.9,196.8,0.57,24.4,31.0,"12:00:32",1
"19/08/08","12:20",0.0,33.8,58.1,1006.0,132.7,1.0,3.5,195.3,0.58,24.4,31.3,"12:15:12",1
"19/08/08","12:30",0.0,33.7,56.9,1005.7,196.0,1.5,3.5,223.1,0.58,24.0,31.4,"12:26:32",1
"19/08/08","12:40",0.0,33.8,56.8,1006.2,153.0,1.0,2.5,212.8,0.58,24.1,31.6,"12:38:24",1
"19/08/08","12:50",0.0,34.3,55.6,1006.2,147.8,0.8,2.1,189.3,0.59,24.2,32.0,"12:48:08",1
"19/08/08","13:00",0.0,34.8,56.7,1006.0,188.3,1.3,3.5,228.9,0.59,25.0,32.1,"12:58:32",1
"19/08/08","13:10",0.0,34.6,57.7,1006.0,212.3,1.5,3.5,213.9,0.60,25.1,32.2,"13:04:48",1
"19/08/08","13:20",0.0,34.6,54.0,1005.7,161.0,1.5,3.7,123.9,0.58,24.0,32.2,"13:16:32",1
"19/08/08","13:30",0.0,35.1,52.0,1005.5,200.4,1.8,5.4,195.7,0.58,23.8,32.6,"13:23:36",1
"19/08/08","13:40",0.0,35.1,50.6,1005.5,168.7,0.8,3.1,227.4,0.57,23.4,32.5,"13:38:00",1
"19/08/08","13:50",0.0,35.9,53.8,1006.0,215.1,0.8,2.4,219.4,0.56,25.1,32.5,"13:46:48",1
"19/08/08","14:00",0.0,35.7,50.9,1005.7,155.2,1.1,3.6,250.1,0.56,24.0,32.6,"13:59:04",1
"19/08/08","14:10",0.0,35.2,49.8,1005.5,181.8,2.0,4.4,199.7,0.54,23.2,32.5,"14:07:36",1
"19/08/08","14:20",0.0,35.4,50.5,1005.5,191.7,1.5,4.1,225.9,0.49,23.6,32.4,"14:16:32",1
"19/08/08","14:30",0.0,35.6,50.1,1005.5,150.2,1.7,4.1,201.8,0.51,23.6,32.5,"14:20:02",1
"19/08/08","14:40",0.0,35.6,48.5,1005.2,187.0,2.1,4.7,210.0,0.48,23.1,32.4,"14:30:48",1
"19/08/08","14:50",0.0,35.5,50.6,1005.0,164.2,2.1,4.1,133.3,0.48,23.7,32.2,"14:46:48",1
"19/08/08","15:00",0.0,35.6,48.7,1005.0,209.8,2.0,4.4,212.5,0.46,23.2,32.3,"14:56:24",1
"19/08/08","15:10",0.0,35.5,47.4,1005.0,194.7,2.3,5.2,215.0,0.46,22.6,32.1,"15:05:28",1
"19/08/08","15:20",0.0,35.8,48.9,1004.5,180.4,2.6,4.5,199.9,0.44,23.4,32.3,"15:15:04",1
"19/08/08","15:30",0.0,35.8,48.4,1004.3,191.2,2.3,5.6,187.9,0.42,23.3,32.3,"15:23:44",1
"19/08/08","15:40",0.0,35.8,44.9,1004.3,210.7,2.2,4.5,216.4,0.40,22.0,32.3,"15:33:28",1
"19/08/08","15:50",0.0,35.8,49.1,1004.1,264.0,1.5,3.9,221.6,0.38,23.5,32.2,"15:41:04",1
"19/08/08","16:00",0.0,35.9,46.6,1003.8,200.1,1.8,5.1,219.1,0.36,22.7,32.3,"15:57:52",1
"19/08/08","16:10",0.0,36.1,46.0,1003.6,212.3,1.7,3.6,226.3,0.34,22.7,32.2,"16:02:56",1
"19/08/08","16:20",0.0,36.6,46.6,1003.6,226.2,1.2,2.7,195.3,0.31,23.4,32.0,"16:16:08",1
"19/08/08","16:30",0.0,36.4,45.6,1003.6,210.4,1.6,4.1,199.8,0.29,22.8,32.1,"16:27:36",1
"19/08/08","16:40",0.0,36.0,46.6,1003.6,221.3,2.1,4.0,243.5,0.27,22.8,32.0,"16:38:08",1
"19/08/08","16:50",0.0,35.9,45.7,1003.6,238.6,1.6,3.6,229.1,0.25,22.4,32.0,"16:42:32",1
"19/08/08","17:00",0.0,36.1,45.7,1003.4,239.4,1.3,3.7,216.6,0.22,22.6,31.8,"16:56:32",1
"19/08/08","17:10",0.0,36.1,44.4,1003.1,232.6,1.0,2.8,223.2,0.20,22.1,31.9,"17:09:04",1
"19/08/08","17:20",0.0,35.9,46.6,1003.1,227.1,1.3,4.1,226.7,0.18,22.7,31.9,"17:12:16",1
"19/08/08","17:30",0.0,35.7,47.2,1003.1,210.9,1.5,2.8,204.9,0.15,22.7,31.7,"17:20:02",1
"19/08/08","17:40",0.0,35.6,46.3,1003.1,221.5,1.2,4.0,219.0,0.13,22.3,31.6,"17:30:16",1
"19/08/08","17:50",0.0,35.3,46.6,1002.9,217.4,1.6,3.3,209.7,0.11,22.2,31.6,"17:44:16",1
"19/08/08","18:00",0.0,35.1,48.3,1002.6,217.9,1.6,4.0,230.8,0.08,22.6,31.4,"17:52:08",1
"19/08/08","18:10",0.0,34.8,47.4,1002.6,223.9,1.6,3.5,213.7,0.03,22.0,31.3,"18:07:28",1
"19/08/08","18:20",0.0,34.4,48.4,1002.6,232.3,1.2,2.8,215.5,0.00,22.0,31.4,"18:15:04",1
"19/08/08","18:30",0.0,33.9,50.7,1002.6,282.9,0.5,1.4,292.8,0.00,22.3,31.1,"18:20:32",1
"19/08/08","18:40",0.0,33.1,55.2,1002.2,338.8,0.5,1.2,356.9,0.00,22.9,31.1,"18:39:20",1
"19/08/08","18:50",0.0,32.0,58.0,1001.7,354.6,0.7,1.4,359.2,0.00,22.7,30.7,"18:44:08",1
"19/08/08","19:00",0.0,31.4,60.1,1001.7,331.2,0.5,1.2,339.7,0.00,22.8,30.7,"18:51:36",1
"19/08/08","19:10",0.0,31.1,62.6,1001.2,347.5,0.6,1.7,341.9,0.00,23.2,30.7,"19:01:36",1
"19/08/08","19:20",0.0,30.3,64.9,1001.0,359.5,1.0,1.6,339.7,0.00,23.0,30.6,"19:17:20",1
"19/08/08","19:30",0.0,30.1,65.2,1000.8,357.2,0.7,1.6,340.3,0.00,22.9,30.4,"19:21:44",1
"19/08/08","19:40",0.0,30.0,64.9,1000.8,23.6,0.5,1.2,21.4,0.00,22.7,30.4,"19:30:24",1
"19/08/08","19:50",0.0,29.7,64.7,1000.8,6.9,0.8,1.8,57.1,0.00,22.4,30.1,"19:48:24",1
"19/08/08","20:00",0.0,29.6,64.2,1000.8,352.0,0.6,1.7,26.2,0.00,22.2,30.0,"19:50:48",1
"19/08/08","20:10",0.0,29.4,65.2,1001.5,359.4,1.0,1.8,104.7,0.00,22.2,29.7,"20:04:00",1
"19/08/08","20:20",0.0,29.2,65.0,1001.5,342.5,0.7,1.4,343.0,0.00,22.0,29.8,"20:14:40",1
"19/08/08","20:30",0.0,29.0,66.5,1001.9,347.1,0.8,2.0,335.4,0.00,22.2,29.6,"20:21:12",1
"19/08/08","20:40",0.0,28.5,68.0,1002.2,350.0,0.6,1.4,331.7,0.00,22.1,29.7,"20:39:36",1
"19/08/08","20:50",0.0,28.2,69.6,1002.2,327.4,0.7,1.4,342.5,0.00,22.2,29.4,"20:41:36",1
"19/08/08","21:00",0.0,27.9,71.4,1002.6,329.0,0.7,1.7,357.3,0.00,22.3,29.3,"20:51:28",1
"19/08/08","21:10",0.0,27.8,72.8,1003.1,352.3,1.0,1.7,350.1,0.00,22.5,29.3,"21:05:04",1
"19/08/08","21:20",0.0,27.7,71.6,1002.9,331.5,1.1,2.4,337.3,0.00,22.1,29.0,"21:18:24",1
"19/08/08","21:30",0.0,28.0,69.4,1003.1,330.2,1.0,1.7,337.4,0.00,21.9,29.2,"21:24:48",1
"19/08/08","21:40",0.0,28.1,69.7,1002.9,333.2,1.1,2.1,345.5,0.00,22.1,28.9,"21:31:52",1
"19/08/08","21:50",0.0,27.6,71.2,1003.1,324.5,0.8,1.8,332.8,0.00,22.0,28.7,"21:43:52",1
"19/08/08","22:00",0.0,27.5,71.9,1003.6,319.3,1.0,2.6,338.3,0.00,22.0,28.7,"21:54:40",1
"19/08/08","22:10",0.0,27.7,71.7,1003.4,342.4,1.1,2.0,357.0,0.00,22.2,28.7,"22:08:40",1
"19/08/08","22:20",0.0,27.4,72.8,1003.4,335.2,1.0,2.4,330.5,0.00,22.1,28.7,"22:10:16",1
"19/08/08","22:30",0.0,27.4,72.9,1003.6,321.9,1.0,1.8,0.2,0.00,22.1,28.7,"22:29:44",1
"19/08/08","22:40",0.0,27.1,75.2,1003.4,331.6,1.1,1.9,343.4,0.00,22.4,28.6,"22:38:00",1
"19/08/08","22:50",0.0,26.7,76.9,1003.8,330.5,1.3,2.4,347.1,0.00,22.4,28.5,"22:44:56",1
"19/08/08","23:00",0.0,26.5,77.7,1003.8,332.0,1.5,2.5,347.0,0.00,22.3,28.4,"22:58:16",1
"19/08/08","23:10",0.0,26.4,78.4,1003.6,327.3,1.3,2.0,340.8,0.00,22.4,28.2,"23:01:04",1
"19/08/08","23:20",0.0,26.2,78.8,1003.8,309.9,1.1,2.1,344.8,0.00,22.3,28.1,"23:11:52",1
"19/08/08","23:30",0.0,26.2,79.3,1003.8,331.5,1.5,2.4,332.2,0.00,22.4,28.2,"23:24:32",1
"19/08/08","23:40",0.0,26.2,79.9,1003.8,332.3,2.0,3.5,331.8,0.00,22.5,28.1,"23:39:52",1
"19/08/08","23:50",0.0,26.0,80.3,1003.8,330.8,1.7,4.1,344.2,0.00,22.4,28.1,"23:41:20",1
"19/08/08","24:00",0.0,25.9,80.7,1003.8,340.6,1.5,2.4,344.5,0.00,22.4,27.8,"23:50:24",1
